FW8085 Weather Reports


time (UTC)temp
C
wind
direction
speed
KPH
gust
KPH
rain 1hr
cm
rain 24hr
cm
rain mn
cm
humidity
%
barometer
mb
20260505093027 11 31 9.7 17.7 0.00 0.38 0.03 99 1009.3
20260505091518 11 26 8.0 14.5 0.00 0.38 0.03 98 1009.3
20260505090010 11 11 11.3 24.1 0.00 0.38 0.03 98 1009.2
20260505084552 11 5 11.3 17.7 0.00 0.38 0.03 98 1009.2
20260505083029 11 32 9.7 17.7 0.00 0.38 0.03 99 1009.2
20260505081516 11 355 12.9 20.9 0.00 0.38 0.03 98 1009.2
20260505080048 11 355 9.7 19.3 0.00 0.38 0.03 98 1009.2
20260505074517 11 17 9.7 14.5 0.00 0.38 0.03 98 1009.4
20260505073111 11 355 8.0 14.5 0.00 0.38 0.03 98 1009.6
20260505071546 11 11 8.0 17.7 0.00 0.38 0.03 98 1009.5
20260505070021 11 5 8.0 14.5 0.00 0.38 0.03 98 1009.5
20260505064556 11 5 6.4 14.5 0.03 0.38 0.03 98 1009.8
20260505063027 11 16 6.4 12.9 0.03 0.38 0.03 98 1009.7
20260505061600 11 360 11.3 16.1 0.03 0.38 0.03 98 1009.8
20260505060036 11 349 3.2 11.3 0.03 0.38 0.03 98 1009.7
20260505054520 11 13 1.6 8.0 0.00 0.36 0.00 98 1009.7
20260505053049 11 321 1.6 9.7 0.00 0.36 0.00 98 1009.7
20260505051518 11 338 1.6 8.0 0.00 0.36 0.00 98 1009.7
20260505041546 11 271 0.0 8.0 0.00 0.36 0.00 98 1009.8
20260505040016 11 243 1.6 8.0 0.00 0.38 0.00 98 1009.9
20260505034556 11 288 1.6 6.4 0.00 0.38 0.00 98 1010.0
20260505033042 11 265 1.6 6.4 0.00 0.38 0.00 98 1010.2
20260505031515 12 10 0.0 4.8 0.00 0.38 0.00 98 1010.3
20260505024541 12 350 0.0 3.2 0.00 0.38 0.00 98 1010.5
20260505023011 12 336 4.8 11.3 0.00 0.38 0.00 98 1010.6
20260505021549 12 336 1.6 3.2 0.00 0.38 0.00 98 1010.5
20260505020028 11 210 0.0 3.2 0.00 0.38 0.00 98 1010.5
20260505014519 11 210 0.0 1.6 0.00 0.38 0.00 98 1010.4
20260505013054 11 210 1.6 3.2 0.00 0.38 0.00 97 1010.4
20260505011530 11 210 1.6 3.2 0.00 0.38 0.00 97 1010.4
20260505010002 11 210 1.6 3.2 0.00 0.38 0.00 97 1010.4
20260505004546 11 210 0.0 0.0 0.00 0.38 0.00 97 1010.6
20260505003017 11 210 0.0 0.0 0.00 0.38 0.00 96 1010.8
20260505001507 11 210 0.0 0.0 0.00 0.38 0.00 96 1010.8
20260505000046 11 210 0.0 3.2 0.00 0.38 0.00 97 1011.0
20260504234528 11 210 0.0 1.6 0.00 0.38 0.00 97 1011.1
20260504233014 11 210 0.0 3.2 0.00 0.38 0.00 97 1011.2
20260504231554 11 210 0.0 3.2 0.00 0.38 0.00 97 1011.3
20260504230027 11 210 0.0 1.6 0.00 0.38 0.00 96 1011.4
20260504224515 10 210 1.6 3.2 0.00 0.38 0.38 96 1011.5
20260504223007 11 152 1.6 3.2 0.00 0.38 0.38 96 1011.6
20260504221542 11 152 0.0 1.6 0.00 0.38 0.38 96 1011.6
20260504220026 11 152 0.0 3.2 0.00 0.38 0.38 96 1011.8
20260504214549 11 152 0.0 1.6 0.00 0.38 0.38 96 1011.9
20260504213008 11 152 0.0 1.6 0.00 0.38 0.38 96 1012.1
20260504211549 12 152 0.0 1.6 0.00 0.38 0.38 95 1012.1
20260504210054 12 152 0.0 0.0 0.00 0.38 0.38 96 1012.3
20260504204549 12 152 0.0 3.2 0.00 0.43 0.38 96 1012.3
20260504203012 12 152 0.0 1.6 0.00 0.43 0.38 96 1012.4
20260504201527 12 152 0.0 0.0 0.00 0.43 0.38 95 1012.3
20260504200055 12 152 0.0 1.6 0.00 0.43 0.38 95 1012.2
20260504194533 12 152 0.0 1.6 0.00 0.43 0.38 95 1012.0
20260504193056 12 152 0.0 1.6 0.00 0.43 0.38 95 1011.9
20260504191523 12 152 0.0 1.6 0.00 0.43 0.38 94 1011.8
20260504190100 12 152 0.0 1.6 0.00 0.43 0.38 94 1011.8
20260504184526 12 152 0.0 0.0 0.00 1.17 0.38 94 1011.6
20260504183003 13 152 0.0 3.2 0.00 1.17 0.38 94 1011.5
20260504181531 13 152 0.0 1.6 0.05 1.17 0.38 93 1011.4
20260504180100 13 152 0.0 3.2 0.05 1.17 0.38 93 1011.4
20260504174526 13 152 0.0 3.2 0.05 1.17 0.38 93 1011.7
20260504173101 13 152 0.0 3.2 0.05 1.17 0.38 92 1011.8
20260504171538 13 104 0.0 3.2 0.03 1.14 0.33 91 1011.9
20260504120108 16 342 1.6 6.4 0.00 1.12 0.03 86 1013.0